Time,TemperatureF,DewpointF,PressureIn,WindDirection,WindDirectionDegrees,WindSpeedMPH,WindSpeedGustMPH,Humidity,HourlyPrecipIn,Conditions,Clouds,dailyrainin,SoftwareType,DateUTC
2013-01-21 00:07:00,47.5,46.1,30.13,WNW,282,0.0,0.0,95,0.00,,,0.00,Wunderground v.1.15,2013-01-21 06:07:00,
2013-01-21 00:12:00,47.4,46.0,30.13,WNW,282,0.0,0.0,95,0.00,,,0.00,Wunderground v.1.15,2013-01-21 06:12:00,
2013-01-21 00:17:00,47.3,45.9,30.12,WNW,282,0.0,0.0,95,0.00,,,0.00,Wunderground v.1.15,2013-01-21 06:17:00,
2013-01-21 00:22:00,47.2,45.8,30.12,WNW,282,0.0,0.0,95,0.00,,,0.00,Wunderground v.1.15,2013-01-21 06:22:00,
2013-01-21 00:27:00,47.2,45.8,30.12,WNW,282,0.0,0.0,95,0.00,,,0.00,Wunderground v.1.15,2013-01-21 06:27:00,
2013-01-21 00:32:00,47.2,45.8,30.11,WNW,282,0.0,0.0,95,0.00,,,0.00,Wunderground v.1.15,2013-01-21 06:32:00,
2013-01-21 00:37:00,47.2,45.8,30.11,WNW,282,0.0,0.0,95,0.00,,,0.00,Wunderground v.1.15,2013-01-21 06:37:00,
2013-01-21 00:42:00,47.4,46.3,30.11,WNW,282,0.0,0.0,96,0.00,,,0.00,Wunderground v.1.15,2013-01-21 06:42:00,
2013-01-21 00:52:00,47.5,46.4,30.11,WNW,282,0.0,0.0,96,0.00,,,0.00,Wunderground v.1.15,2013-01-21 06:52:00,
2013-01-21 00:57:00,47.5,46.4,30.11,WNW,282,0.0,0.0,96,0.00,,,0.00,Wunderground v.1.15,2013-01-21 06:57:00,
2013-01-21 01:07:00,47.6,46.5,30.11,WNW,282,0.0,0.0,96,0.00,,,0.00,Wunderground v.1.15,2013-01-21 07:07:00,
2013-01-21 01:12:00,47.6,46.5,30.11,WNW,282,0.0,0.0,96,0.00,,,0.00,Wunderground v.1.15,2013-01-21 07:12:00,
2013-01-21 01:17:00,47.6,46.5,30.11,WNW,282,0.0,0.0,96,0.00,,,0.00,Wunderground v.1.15,2013-01-21 07:17:00,
2013-01-21 01:22:00,47.6,46.5,30.10,WNW,282,0.0,0.0,96,0.00,,,0.00,Wunderground v.1.15,2013-01-21 07:22:00,
2013-01-21 01:27:00,47.6,46.5,30.10,WNW,282,0.0,0.0,96,0.00,,,0.00,Wunderground v.1.15,2013-01-21 07:27:00,
2013-01-21 01:32:00,47.5,46.4,30.10,WNW,282,0.0,0.0,96,0.00,,,0.00,Wunderground v.1.15,2013-01-21 07:32:00,
2013-01-21 01:37:00,47.5,46.4,30.10,WNW,282,0.0,0.0,96,0.00,,,0.00,Wunderground v.1.15,2013-01-21 07:37:00,
2013-01-21 01:42:00,47.4,46.3,30.10,WNW,282,0.0,0.0,96,0.00,,,0.00,Wunderground v.1.15,2013-01-21 07:42:00,
2013-01-21 01:52:00,47.3,46.2,30.10,WNW,282,0.0,0.0,96,0.00,,,0.00,Wunderground v.1.15,2013-01-21 07:52:00,
2013-01-21 01:57:00,47.3,46.2,30.10,WNW,282,0.0,0.0,96,0.00,,,0.00,Wunderground v.1.15,2013-01-21 07:57:00,
2013-01-21 02:07:00,47.2,46.1,30.10,WNW,282,0.0,0.0,96,0.00,,,0.00,Wunderground v.1.15,2013-01-21 08:07:00,
2013-01-21 02:12:00,47.2,46.1,30.10,WNW,282,0.0,0.0,96,0.00,,,0.00,Wunderground v.1.15,2013-01-21 08:12:00,
2013-01-21 02:17:00,47.2,46.1,30.10,WNW,282,0.0,0.0,96,0.00,,,0.00,Wunderground v.1.15,2013-01-21 08:17:00,
2013-01-21 02:22:00,47.1,46.0,30.10,WNW,282,0.0,0.0,96,0.00,,,0.00,Wunderground v.1.15,2013-01-21 08:22:00,
2013-01-21 02:27:00,47.1,46.0,30.10,WNW,282,0.0,0.0,96,0.00,,,0.00,Wunderground v.1.15,2013-01-21 08:27:00,
2013-01-21 02:32:00,47.1,46.0,30.10,WNW,282,0.0,0.0,96,0.00,,,0.00,Wunderground v.1.15,2013-01-21 08:32:00,
2013-01-21 02:37:00,47.2,46.1,30.10,WNW,282,0.0,0.0,96,0.00,,,0.00,Wunderground v.1.15,2013-01-21 08:37:00,
2013-01-21 02:42:00,47.2,46.1,30.10,WNW,282,0.0,0.0,96,0.00,,,0.00,Wunderground v.1.15,2013-01-21 08:42:00,
2013-01-21 02:47:00,47.1,46.0,30.09,WNW,282,0.0,0.0,96,0.00,,,0.00,Wunderground v.1.15,2013-01-21 08:47:00,
2013-01-21 02:52:00,47.0,45.9,30.09,WNW,282,0.0,0.0,96,0.00,,,0.00,Wunderground v.1.15,2013-01-21 08:52:00,
2013-01-21 02:57:00,47.0,45.9,30.09,WNW,282,0.0,0.0,96,0.00,,,0.00,Wunderground v.1.15,2013-01-21 08:57:00,
2013-01-21 03:07:00,46.9,45.8,30.09,WNW,282,0.0,0.0,96,0.00,,,0.00,Wunderground v.1.15,2013-01-21 09:07:00,
2013-01-21 03:12:00,46.8,45.7,30.10,WNW,282,0.0,0.0,96,0.00,,,0.00,Wunderground v.1.15,2013-01-21 09:12:00,
2013-01-21 03:17:00,46.7,45.6,30.10,WNW,282,0.0,0.0,96,0.00,,,0.00,Wunderground v.1.15,2013-01-21 09:17:00,
2013-01-21 03:22:00,46.6,45.5,30.10,WNW,282,0.0,0.0,96,0.00,,,0.00,Wunderground v.1.15,2013-01-21 09:22:00,
2013-01-21 03:32:00,46.3,45.2,30.09,WNW,282,0.0,0.0,96,0.00,,,0.00,Wunderground v.1.15,2013-01-21 09:32:00,
2013-01-21 03:37:00,46.3,45.2,30.09,WNW,282,0.0,0.0,96,0.00,,,0.00,Wunderground v.1.15,2013-01-21 09:37:00,
2013-01-21 03:42:00,46.2,45.1,30.09,WNW,282,0.0,0.0,96,0.00,,,0.00,Wunderground v.1.15,2013-01-21 09:42:00,
2013-01-21 03:47:00,46.1,45.0,30.10,WNW,282,0.0,0.0,96,0.00,,,0.00,Wunderground v.1.15,2013-01-21 09:47:00,
2013-01-21 03:52:00,46.1,45.0,30.10,WNW,282,0.0,0.0,96,0.00,,,0.00,Wunderground v.1.15,2013-01-21 09:52:00,
2013-01-21 03:57:00,46.0,44.9,30.10,WNW,282,0.0,0.0,96,0.00,,,0.00,Wunderground v.1.15,2013-01-21 09:57:00,
2013-01-21 04:07:00,45.9,44.8,30.10,WNW,282,0.0,0.0,96,0.00,,,0.00,Wunderground v.1.15,2013-01-21 10:07:00,
2013-01-21 04:12:00,46.0,44.9,30.10,WNW,282,0.0,0.0,96,0.00,,,0.00,Wunderground v.1.15,2013-01-21 10:12:00,
2013-01-21 04:17:00,46.0,44.9,30.11,WNW,282,0.0,0.0,96,0.00,,,0.00,Wunderground v.1.15,2013-01-21 10:17:00,
2013-01-21 04:22:00,46.0,44.9,30.11,WNW,282,0.0,0.0,96,0.00,,,0.00,Wunderground v.1.15,2013-01-21 10:22:00,
2013-01-21 04:27:00,45.9,44.8,30.11,WNW,282,0.0,0.0,96,0.00,,,0.00,Wunderground v.1.15,2013-01-21 10:27:00,
2013-01-21 04:32:00,45.9,44.8,30.11,WNW,282,0.0,0.0,96,0.00,,,0.00,Wunderground v.1.15,2013-01-21 10:32:00,
2013-01-21 04:37:00,45.8,44.7,30.11,WNW,282,0.0,0.0,96,0.00,,,0.00,Wunderground v.1.15,2013-01-21 10:37:00,
2013-01-21 04:42:00,45.9,44.8,30.11,WNW,282,0.0,0.0,96,0.00,,,0.00,Wunderground v.1.15,2013-01-21 10:42:00,
2013-01-21 04:47:00,46.1,45.0,30.11,WNW,282,0.0,0.0,96,0.00,,,0.00,Wunderground v.1.15,2013-01-21 10:47:00,
2013-01-21 04:52:00,46.2,45.1,30.11,WNW,282,0.0,0.0,96,0.00,,,0.00,Wunderground v.1.15,2013-01-21 10:52:00,
2013-01-21 04:57:00,46.1,45.0,30.11,WNW,282,0.0,0.0,96,0.00,,,0.00,Wunderground v.1.15,2013-01-21 10:57:00,
2013-01-21 05:07:00,46.0,44.9,30.11,WNW,282,0.0,0.0,96,0.00,,,0.00,Wunderground v.1.15,2013-01-21 11:07:00,
2013-01-21 05:12:00,46.0,44.9,30.11,WNW,282,0.0,0.0,96,0.00,,,0.00,Wunderground v.1.15,2013-01-21 11:12:00,
2013-01-21 05:17:00,45.9,44.8,30.11,WNW,282,0.0,0.0,96,0.00,,,0.00,Wunderground v.1.15,2013-01-21 11:17:00,
2013-01-21 05:22:00,45.8,45.0,30.11,WNW,282,0.0,0.0,97,0.00,,,0.00,Wunderground v.1.15,2013-01-21 11:22:00,
2013-01-21 05:27:00,45.8,44.7,30.11,WNW,282,0.0,0.0,96,0.00,,,0.00,Wunderground v.1.15,2013-01-21 11:27:00,
2013-01-21 05:32:00,45.8,44.7,30.11,WNW,282,0.0,0.0,96,0.00,,,0.00,Wunderground v.1.15,2013-01-21 11:32:00,
2013-01-21 05:37:00,45.9,45.1,30.11,WNW,282,0.0,0.0,97,0.00,,,0.00,Wunderground v.1.15,2013-01-21 11:37:00,
2013-01-21 05:42:00,45.9,45.1,30.11,WNW,282,0.0,0.0,97,0.00,,,0.00,Wunderground v.1.15,2013-01-21 11:42:00,
2013-01-21 05:47:00,45.9,45.1,30.12,WNW,282,0.0,0.0,97,0.00,,,0.00,Wunderground v.1.15,2013-01-21 11:47:00,
2013-01-21 05:52:00,45.8,45.0,30.12,WNW,282,0.0,0.0,97,0.00,,,0.00,Wunderground v.1.15,2013-01-21 11:52:00,
2013-01-21 05:57:00,45.8,45.0,30.12,WNW,282,0.0,0.0,97,0.00,,,0.00,Wunderground v.1.15,2013-01-21 11:57:00,
2013-01-21 06:07:00,45.9,45.1,30.12,WNW,282,0.0,0.0,97,0.00,,,0.00,Wunderground v.1.15,2013-01-21 12:07:00,
2013-01-21 06:12:00,45.9,45.1,30.13,WNW,282,0.0,0.0,97,0.00,,,0.00,Wunderground v.1.15,2013-01-21 12:12:00,
2013-01-21 06:17:00,45.8,45.0,30.13,WNW,282,0.0,0.0,97,0.00,,,0.00,Wunderground v.1.15,2013-01-21 12:17:00,
2013-01-21 06:22:00,45.8,45.0,30.13,WNW,282,0.0,0.0,97,0.00,,,0.00,Wunderground v.1.15,2013-01-21 12:22:00,
2013-01-21 06:27:00,45.7,44.9,30.13,WNW,282,0.0,0.0,97,0.00,,,0.00,Wunderground v.1.15,2013-01-21 12:27:00,
2013-01-21 06:37:00,45.5,44.7,30.13,WNW,282,0.0,0.0,97,0.00,,,0.00,Wunderground v.1.15,2013-01-21 12:37:00,
2013-01-21 06:42:00,45.5,44.7,30.13,WNW,282,0.0,0.0,97,0.00,,,0.00,Wunderground v.1.15,2013-01-21 12:42:00,
2013-01-21 06:47:00,45.4,44.6,30.13,WNW,282,0.0,0.0,97,0.00,,,0.00,Wunderground v.1.15,2013-01-21 12:47:00,
2013-01-21 06:52:00,45.4,44.6,30.14,WNW,282,0.0,0.0,97,0.00,,,0.00,Wunderground v.1.15,2013-01-21 12:52:00,
2013-01-21 06:57:00,45.5,44.7,30.14,SSE,162,0.0,0.0,97,0.00,,,0.00,Wunderground v.1.15,2013-01-21 12:57:00,
2013-01-21 07:07:00,45.5,44.7,30.14,SSE,162,0.0,0.0,97,0.00,,,0.00,Wunderground v.1.15,2013-01-21 13:07:00,
2013-01-21 07:12:00,45.5,44.7,30.14,SSE,162,0.0,0.0,97,0.00,,,0.00,Wunderground v.1.15,2013-01-21 13:12:00,
2013-01-21 07:17:00,45.5,44.7,30.14,SSE,162,0.0,0.0,97,0.00,,,0.00,Wunderground v.1.15,2013-01-21 13:17:00,
2013-01-21 07:22:00,45.5,44.7,30.14,SSE,162,0.0,0.0,97,0.00,,,0.00,Wunderground v.1.15,2013-01-21 13:22:00,
2013-01-21 07:27:00,45.5,44.7,30.14,SSE,162,0.0,0.0,97,0.00,,,0.00,Wunderground v.1.15,2013-01-21 13:27:00,
2013-01-21 07:32:00,45.5,44.7,30.15,SSE,162,0.0,0.0,97,0.00,,,0.00,Wunderground v.1.15,2013-01-21 13:32:00,
2013-01-21 07:37:00,45.6,44.8,30.15,SSE,162,0.0,0.0,97,0.00,,,0.00,Wunderground v.1.15,2013-01-21 13:37:00,
2013-01-21 07:42:00,45.6,44.8,30.15,SSE,162,0.0,0.0,97,0.00,,,0.00,Wunderground v.1.15,2013-01-21 13:42:00,
2013-01-21 07:52:00,46.1,45.3,30.15,ENE,66,0.0,0.0,97,0.00,,,0.00,Wunderground v.1.15,2013-01-21 13:52:00,
2013-01-21 07:57:00,46.4,45.6,30.15,ENE,66,0.0,0.0,97,0.00,,,0.00,Wunderground v.1.15,2013-01-21 13:57:00,
2013-01-21 08:07:00,46.9,46.1,30.15,ENE,66,0.0,0.0,97,0.00,,,0.00,Wunderground v.1.15,2013-01-21 14:07:00,
2013-01-21 08:12:00,47.3,46.5,30.16,ENE,66,0.0,0.0,97,0.00,,,0.00,Wunderground v.1.15,2013-01-21 14:12:00,
2013-01-21 08:17:00,47.6,46.8,30.16,ENE,66,0.0,0.0,97,0.00,,,0.00,Wunderground v.1.15,2013-01-21 14:17:00,
2013-01-21 08:22:00,47.9,47.1,30.15,ENE,66,0.0,0.0,97,0.00,,,0.00,Wunderground v.1.15,2013-01-21 14:22:00,
2013-01-21 08:27:00,48.2,47.1,30.16,ENE,66,0.0,0.0,96,0.00,,,0.00,Wunderground v.1.15,2013-01-21 14:27:00,
2013-01-21 08:32:00,48.7,47.6,30.16,ENE,66,0.0,0.0,96,0.00,,,0.00,Wunderground v.1.15,2013-01-21 14:32:00,
2013-01-21 08:37:00,49.2,47.5,30.17,ENE,66,0.0,0.0,94,0.00,,,0.00,Wunderground v.1.15,2013-01-21 14:37:00,
2013-01-21 08:42:00,49.8,48.1,30.17,ENE,66,0.0,0.0,94,0.00,,,0.00,Wunderground v.1.15,2013-01-21 14:42:00,
2013-01-21 08:47:00,50.4,48.5,30.17,ENE,66,0.0,0.0,93,0.00,,,0.00,Wunderground v.1.15,2013-01-21 14:47:00,
2013-01-21 08:52:00,50.8,47.7,30.17,SE,145,0.0,0.0,89,0.00,,,0.00,Wunderground v.1.15,2013-01-21 14:52:00,
2013-01-21 08:57:00,51.5,48.1,30.17,NE,34,0.0,0.0,88,0.00,,,0.00,Wunderground v.1.15,2013-01-21 14:57:00,
2013-01-21 09:07:00,53.1,50.5,30.18,NE,34,0.0,0.0,91,0.00,,,0.00,Wunderground v.1.15,2013-01-21 15:07:00,
2013-01-21 09:12:00,53.7,51.1,30.18,NE,34,0.0,0.0,91,0.00,,,0.00,Wunderground v.1.15,2013-01-21 15:12:00,
2013-01-21 09:17:00,53.9,49.5,30.18,NE,34,0.0,0.0,85,0.00,,,0.00,Wunderground v.1.15,2013-01-21 15:17:00,
2013-01-21 09:22:00,54.1,50.0,30.18,NE,34,0.0,0.0,86,0.00,,,0.00,Wunderground v.1.15,2013-01-21 15:22:00,
2013-01-21 09:27:00,54.4,50.0,30.18,NE,34,0.0,0.0,85,0.00,,,0.00,Wunderground v.1.15,2013-01-21 15:27:00,
2013-01-21 09:32:00,54.5,50.1,30.18,NE,34,0.0,0.0,85,0.00,,,0.00,Wunderground v.1.15,2013-01-21 15:32:00,
2013-01-21 09:37:00,54.7,50.0,30.18,NE,34,0.0,0.0,84,0.00,,,0.00,Wunderground v.1.15,2013-01-21 15:37:00,
2013-01-21 09:42:00,54.7,50.0,30.18,NE,34,0.0,0.0,84,0.00,,,0.00,Wunderground v.1.15,2013-01-21 15:42:00,
2013-01-21 09:47:00,54.6,48.9,30.19,NE,34,0.0,0.0,81,0.00,,,0.00,Wunderground v.1.15,2013-01-21 15:47:00,
2013-01-21 09:52:00,54.6,49.5,30.18,NE,34,0.0,0.0,83,0.00,,,0.00,Wunderground v.1.15,2013-01-21 15:52:00,
2013-01-21 09:57:00,54.6,48.9,30.18,NE,34,0.0,0.0,81,0.00,,,0.00,Wunderground v.1.15,2013-01-21 15:57:00,
2013-01-21 10:07:00,54.4,48.7,30.18,NE,34,0.0,0.0,81,0.00,,,0.00,Wunderground v.1.15,2013-01-21 16:07:00,
2013-01-21 10:12:00,54.5,48.8,30.18,NE,34,0.0,0.0,81,0.00,,,0.00,Wunderground v.1.15,2013-01-21 16:12:00,
2013-01-21 10:17:00,54.5,48.8,30.17,NE,34,0.0,0.0,81,0.00,,,0.00,Wunderground v.1.15,2013-01-21 16:17:00,
2013-01-21 10:22:00,54.7,49.3,30.17,NE,34,0.0,0.0,82,0.00,,,0.00,Wunderground v.1.15,2013-01-21 16:22:00,
2013-01-21 10:27:00,54.9,49.2,30.17,NE,34,0.0,0.0,81,0.00,,,0.00,Wunderground v.1.15,2013-01-21 16:27:00,
2013-01-21 10:32:00,55.2,49.8,30.17,NE,34,0.0,0.0,82,0.00,,,0.00,Wunderground v.1.15,2013-01-21 16:32:00,
2013-01-21 10:37:00,55.6,49.5,30.17,NE,34,0.0,0.0,80,0.00,,,0.00,Wunderground v.1.15,2013-01-21 16:37:00,
2013-01-21 10:42:00,56.0,49.9,30.16,NE,34,0.0,0.0,80,0.00,,,0.00,Wunderground v.1.15,2013-01-21 16:42:00,
2013-01-21 10:47:00,56.4,49.6,30.16,NE,34,0.0,0.0,78,0.00,,,0.00,Wunderground v.1.15,2013-01-21 16:47:00,
2013-01-21 10:52:00,57.0,50.9,30.16,NNE,33,0.0,0.0,80,0.00,,,0.00,Wunderground v.1.15,2013-01-21 16:52:00,
2013-01-21 10:57:00,57.6,51.5,30.16,NE,34,0.0,0.0,80,0.00,,,0.00,Wunderground v.1.15,2013-01-21 16:57:00,
2013-01-21 11:07:00,58.4,51.2,30.15,NE,34,0.0,0.0,77,0.00,,,0.00,Wunderground v.1.15,2013-01-21 17:07:00,
2013-01-21 11:12:00,58.6,51.1,30.15,NE,34,0.0,0.0,76,0.00,,,0.00,Wunderground v.1.15,2013-01-21 17:12:00,
2013-01-21 11:17:00,58.5,51.3,30.15,NNE,33,0.0,0.0,77,0.00,,,0.00,Wunderground v.1.15,2013-01-21 17:17:00,
2013-01-21 11:22:00,58.7,51.2,30.15,NNE,33,0.0,0.0,76,0.00,,,0.00,Wunderground v.1.15,2013-01-21 17:22:00,
2013-01-21 11:27:00,59.0,50.0,30.15,NNE,33,0.0,0.0,72,0.00,,,0.00,Wunderground v.1.15,2013-01-21 17:27:00,
2013-01-21 11:32:00,59.0,49.6,30.14,NE,48,0.0,0.0,71,0.00,,,0.00,Wunderground v.1.15,2013-01-21 17:32:00,
2013-01-21 11:37:00,59.2,50.5,30.14,ENE,60,0.0,0.0,73,0.00,,,0.00,Wunderground v.1.15,2013-01-21 17:37:00,
2013-01-21 11:42:00,59.6,50.9,30.14,ENE,60,0.0,0.0,73,0.00,,,0.00,Wunderground v.1.15,2013-01-21 17:42:00,
2013-01-21 11:47:00,59.8,51.1,30.13,ESE,109,0.0,0.0,73,0.00,,,0.00,Wunderground v.1.15,2013-01-21 17:47:00,
2013-01-21 11:52:00,60.0,50.2,30.13,West,265,0.0,0.0,70,0.00,,,0.00,Wunderground v.1.15,2013-01-21 17:52:00,
2013-01-21 12:07:00,60.3,50.9,30.13,ENE,74,0.0,0.0,71,0.00,,,0.00,Wunderground v.1.15,2013-01-21 18:07:00,
2013-01-21 12:12:00,60.5,50.3,30.13,ENE,74,0.0,0.0,69,0.00,,,0.00,Wunderground v.1.15,2013-01-21 18:12:00,
2013-01-21 12:17:00,60.7,50.1,30.12,ENE,74,0.0,0.0,68,0.00,,,0.00,Wunderground v.1.15,2013-01-21 18:17:00,
2013-01-21 12:22:00,60.9,49.1,30.12,ENE,59,0.0,0.0,65,0.00,,,0.00,Wunderground v.1.15,2013-01-21 18:22:00,
2013-01-21 12:27:00,61.0,48.7,30.12,NNW,344,0.0,0.0,64,0.00,,,0.00,Wunderground v.1.15,2013-01-21 18:27:00,
2013-01-21 12:32:00,61.2,48.1,30.12,NNE,20,0.0,0.0,62,0.00,,,0.00,Wunderground v.1.15,2013-01-21 18:32:00,
2013-01-21 12:37:00,61.4,48.3,30.12,NNE,18,0.0,0.0,62,0.00,,,0.00,Wunderground v.1.15,2013-01-21 18:37:00,
2013-01-21 12:42:00,61.4,47.8,30.11,NNE,18,0.0,0.0,61,0.00,,,0.00,Wunderground v.1.15,2013-01-21 18:42:00,
2013-01-21 12:47:00,61.4,47.4,30.11,North,360,0.0,0.0,60,0.00,,,0.00,Wunderground v.1.15,2013-01-21 18:47:00,
2013-01-21 12:52:00,61.6,48.0,30.11,North,350,0.0,0.0,61,0.00,,,0.00,Wunderground v.1.15,2013-01-21 18:52:00,
2013-01-21 12:57:00,61.8,48.2,30.11,WNW,302,0.0,0.0,61,0.00,,,0.00,Wunderground v.1.15,2013-01-21 18:57:00,
2013-01-21 13:07:00,62.1,47.6,30.10,East,92,0.0,0.0,59,0.00,,,0.00,Wunderground v.1.15,2013-01-21 19:07:00,
2013-01-21 13:12:00,62.1,47.6,30.10,East,92,0.0,0.0,59,0.00,,,0.00,Wunderground v.1.15,2013-01-21 19:12:00,
2013-01-21 13:17:00,-999.9,-99.9,30.10,North,32767,-999.0,0.0,255,-99.99,,,0.00,Wunderground v.1.15,2013-01-21 19:17:00,
2013-01-21 13:22:00,-999.9,-99.9,30.10,North,32767,-999.0,0.0,255,-99.99,,,0.00,Wunderground v.1.15,2013-01-21 19:22:00,
2013-01-21 13:32:00,62.9,48.3,30.10,ESE,122,0.0,0.0,59,0.00,,,0.00,Wunderground v.1.15,2013-01-21 19:32:00,
2013-01-21 13:37:00,63.1,47.6,30.10,NNE,27,0.0,1.0,57,0.00,,,0.00,Wunderground v.1.15,2013-01-21 19:37:00,
2013-01-21 13:42:00,63.2,47.2,30.10,SE,127,0.0,1.0,56,0.00,,,0.00,Wunderground v.1.15,2013-01-21 19:42:00,
2013-01-21 13:47:00,63.4,47.4,30.10,ENE,64,0.0,0.0,56,0.00,,,0.00,Wunderground v.1.15,2013-01-21 19:47:00,
2013-01-21 13:57:00,63.7,48.6,30.10,ENE,65,0.0,0.0,58,0.00,,,0.00,Wunderground v.1.15,2013-01-21 19:57:00,
2013-01-21 14:07:00,63.9,47.4,30.10,ENE,62,0.0,0.0,55,0.00,,,0.00,Wunderground v.1.15,2013-01-21 20:07:00,
2013-01-21 14:12:00,63.9,47.9,30.10,East,82,0.0,0.0,56,0.00,,,0.00,Wunderground v.1.15,2013-01-21 20:12:00,
2013-01-21 14:22:00,63.4,46.0,30.10,NNW,329,0.0,0.0,53,0.00,,,0.00,Wunderground v.1.15,2013-01-21 20:22:00,
2013-01-21 14:27:00,63.2,46.3,30.10,WSW,258,0.0,0.0,54,0.00,,,0.00,Wunderground v.1.15,2013-01-21 20:27:00,
2013-01-21 14:32:00,63.0,46.6,30.10,WSW,258,0.0,0.0,55,0.00,,,0.00,Wunderground v.1.15,2013-01-21 20:32:00,
2013-01-21 14:37:00,62.9,45.0,30.10,NE,51,0.0,0.0,52,0.00,,,0.00,Wunderground v.1.15,2013-01-21 20:37:00,
2013-01-21 14:42:00,63.0,46.1,30.10,NE,40,1.0,1.0,54,0.00,,,0.00,Wunderground v.1.15,2013-01-21 20:42:00,
2013-01-21 14:52:00,63.1,46.2,30.09,NNE,26,0.0,0.0,54,0.00,,,0.00,Wunderground v.1.15,2013-01-21 20:52:00,
2013-01-21 14:57:00,63.1,46.7,30.09,East,96,0.0,0.0,55,0.00,,,0.00,Wunderground v.1.15,2013-01-21 20:57:00,
2013-01-21 15:07:00,63.1,46.2,30.10,North,360,1.0,1.0,54,0.00,,,0.00,Wunderground v.1.15,2013-01-21 21:07:00,
2013-01-21 15:12:00,63.1,46.2,30.10,SW,217,1.0,1.0,54,0.00,,,0.00,Wunderground v.1.15,2013-01-21 21:12:00,
2013-01-21 15:17:00,63.1,47.6,30.10,SW,222,0.0,0.0,57,0.00,,,0.00,Wunderground v.1.15,2013-01-21 21:17:00,
2013-01-21 15:22:00,63.0,46.6,30.10,SSE,163,0.0,0.0,55,0.00,,,0.00,Wunderground v.1.15,2013-01-21 21:22:00,
2013-01-21 15:27:00,62.9,47.0,30.10,NNE,20,0.0,0.0,56,0.00,,,0.00,Wunderground v.1.15,2013-01-21 21:27:00,
2013-01-21 15:32:00,62.9,47.9,30.10,NNE,20,0.0,0.0,58,0.00,,,0.00,Wunderground v.1.15,2013-01-21 21:32:00,
2013-01-21 15:37:00,62.8,46.9,30.10,NNE,17,0.0,0.0,56,0.00,,,0.00,Wunderground v.1.15,2013-01-21 21:37:00,
2013-01-21 15:42:00,62.6,46.2,30.10,ESE,113,0.0,3.0,55,0.00,,,0.00,Wunderground v.1.15,2013-01-21 21:42:00,
2013-01-21 15:47:00,62.5,46.6,30.10,ESE,113,0.0,0.0,56,0.00,,,0.00,Wunderground v.1.15,2013-01-21 21:47:00,
2013-01-21 15:52:00,62.5,46.1,30.10,NNE,25,0.0,0.0,55,0.00,,,0.00,Wunderground v.1.15,2013-01-21 21:52:00,
2013-01-21 15:57:00,62.4,46.5,30.10,NNE,26,0.0,0.0,56,0.00,,,0.00,Wunderground v.1.15,2013-01-21 21:57:00,
2013-01-21 16:07:00,62.2,45.8,30.11,NE,43,0.0,0.0,55,0.00,,,0.00,Wunderground v.1.15,2013-01-21 22:07:00,
2013-01-21 16:12:00,62.2,45.8,30.10,NNE,29,1.0,1.0,55,0.00,,,0.00,Wunderground v.1.15,2013-01-21 22:12:00,
2013-01-21 16:17:00,62.2,45.8,30.11,NE,36,1.0,1.0,55,0.00,,,0.00,Wunderground v.1.15,2013-01-21 22:17:00,
2013-01-21 16:22:00,62.1,45.7,30.11,NE,36,0.0,1.0,55,0.00,,,0.00,Wunderground v.1.15,2013-01-21 22:22:00,
2013-01-21 16:27:00,62.1,45.2,30.11,NNW,333,0.0,0.0,54,0.00,,,0.00,Wunderground v.1.15,2013-01-21 22:27:00,
2013-01-21 16:32:00,62.0,46.6,30.11,NNW,344,0.0,0.0,57,0.00,,,0.00,Wunderground v.1.15,2013-01-21 22:32:00,
2013-01-21 16:37:00,61.7,46.3,30.11,NE,34,0.0,0.0,57,0.00,,,0.00,Wunderground v.1.15,2013-01-21 22:37:00,
2013-01-21 16:42:00,61.5,45.7,30.11,ESE,120,0.0,0.0,56,0.00,,,0.00,Wunderground v.1.15,2013-01-21 22:42:00,
2013-01-21 16:47:00,61.3,45.9,30.11,ENE,67,0.0,0.0,57,0.00,,,0.00,Wunderground v.1.15,2013-01-21 22:47:00,
2013-01-21 16:52:00,61.1,46.2,30.11,ENE,67,0.0,0.0,58,0.00,,,0.00,Wunderground v.1.15,2013-01-21 22:52:00,
2013-01-21 16:57:00,60.8,45.9,30.11,ESE,113,0.0,0.0,58,0.00,,,0.00,Wunderground v.1.15,2013-01-21 22:57:00,
2013-01-21 17:07:00,60.4,45.5,30.12,East,85,0.0,0.0,58,0.00,,,0.00,Wunderground v.1.15,2013-01-21 23:07:00,
2013-01-21 17:12:00,60.0,44.3,30.12,NNE,27,0.0,0.0,56,0.00,,,0.00,Wunderground v.1.15,2013-01-21 23:12:00,
2013-01-21 17:17:00,59.8,44.1,30.12,ESE,114,0.0,0.0,56,0.00,,,0.00,Wunderground v.1.15,2013-01-21 23:17:00,
2013-01-21 17:22:00,59.6,44.8,30.12,NE,34,0.0,0.0,58,0.00,,,0.00,Wunderground v.1.15,2013-01-21 23:22:00,
2013-01-21 17:27:00,59.3,44.5,30.13,ENE,76,0.0,0.0,58,0.00,,,0.00,Wunderground v.1.15,2013-01-21 23:27:00,
2013-01-21 17:37:00,58.9,44.6,30.13,ENE,76,0.0,0.0,59,0.00,,,0.00,Wunderground v.1.15,2013-01-21 23:37:00,
2013-01-21 17:42:00,58.3,44.9,30.13,ENE,76,0.0,0.0,61,0.00,,,0.00,Wunderground v.1.15,2013-01-21 23:42:00,
2013-01-21 17:47:00,57.7,45.2,30.13,ENE,76,0.0,0.0,63,0.00,,,0.00,Wunderground v.1.15,2013-01-21 23:47:00,
2013-01-21 17:52:00,57.2,44.7,30.13,ENE,76,0.0,0.0,63,0.00,,,0.00,Wunderground v.1.15,2013-01-21 23:52:00,
2013-01-21 17:57:00,56.7,45.1,30.13,ENE,76,0.0,0.0,65,0.00,,,0.00,Wunderground v.1.15,2013-01-21 23:57:00,
2013-01-21 18:07:00,55.9,45.1,30.14,ENE,76,0.0,0.0,67,0.00,,,0.00,Wunderground v.1.15,2013-01-22 00:07:00,
2013-01-21 18:12:00,55.6,45.2,30.14,ENE,76,0.0,0.0,68,0.00,,,0.00,Wunderground v.1.15,2013-01-22 00:12:00,
2013-01-21 18:17:00,55.2,44.4,30.14,ENE,76,0.0,0.0,67,0.00,,,0.00,Wunderground v.1.15,2013-01-22 00:17:00,
2013-01-21 18:22:00,55.0,44.2,30.14,North,350,0.0,0.0,67,0.00,,,0.00,Wunderground v.1.15,2013-01-22 00:22:00,
2013-01-21 18:27:00,55.0,44.2,30.14,North,351,0.0,0.0,67,0.00,,,0.00,Wunderground v.1.15,2013-01-22 00:27:00,
2013-01-21 18:32:00,55.3,43.7,30.15,NE,42,0.0,0.0,65,0.00,,,0.00,Wunderground v.1.15,2013-01-22 00:32:00,
2013-01-21 18:37:00,55.6,43.2,30.15,NE,42,0.0,0.0,63,0.00,,,0.00,Wunderground v.1.15,2013-01-22 00:37:00,
2013-01-21 18:42:00,56.0,43.6,30.15,NE,46,0.0,0.0,63,0.00,,,0.00,Wunderground v.1.15,2013-01-22 00:42:00,
2013-01-21 18:47:00,56.3,43.9,30.15,NE,46,0.0,0.0,63,0.00,,,0.00,Wunderground v.1.15,2013-01-22 00:47:00,
2013-01-21 18:52:00,56.6,44.1,30.15,NE,43,0.0,2.0,63,0.00,,,0.00,Wunderground v.1.15,2013-01-22 00:52:00,
2013-01-21 18:57:00,57.0,44.1,30.15,NNE,22,0.0,0.0,62,0.00,,,0.00,Wunderground v.1.15,2013-01-22 00:57:00,
2013-01-21 19:07:00,57.1,43.8,30.15,NNE,28,0.0,0.0,61,0.00,,,0.00,Wunderground v.1.15,2013-01-22 01:07:00,
2013-01-21 19:12:00,57.1,44.6,30.15,WSW,244,0.0,0.0,63,0.00,,,0.00,Wunderground v.1.15,2013-01-22 01:12:00,
2013-01-21 19:17:00,57.1,44.2,30.15,NNE,22,0.0,0.0,62,0.00,,,0.00,Wunderground v.1.15,2013-01-22 01:17:00,
2013-01-21 19:22:00,57.1,43.8,30.15,North,11,0.0,0.0,61,0.00,,,0.00,Wunderground v.1.15,2013-01-22 01:22:00,
2013-01-21 19:27:00,57.0,44.1,30.15,North,355,0.0,0.0,62,0.00,,,0.00,Wunderground v.1.15,2013-01-22 01:27:00,
2013-01-21 19:32:00,56.9,44.0,30.16,North,355,0.0,1.0,62,0.00,,,0.00,Wunderground v.1.15,2013-01-22 01:32:00,
2013-01-21 19:37:00,56.9,44.0,30.15,North,360,1.0,1.0,62,0.00,,,0.00,Wunderground v.1.15,2013-01-22 01:37:00,
2013-01-21 19:42:00,56.8,43.9,30.16,East,88,1.0,1.0,62,0.00,,,0.00,Wunderground v.1.15,2013-01-22 01:42:00,
2013-01-21 19:47:00,56.7,43.8,30.16,NE,34,0.0,0.0,62,0.00,,,0.00,Wunderground v.1.15,2013-01-22 01:47:00,
2013-01-21 19:52:00,56.6,44.1,30.16,NNE,24,0.0,0.0,63,0.00,,,0.00,Wunderground v.1.15,2013-01-22 01:52:00,
2013-01-21 19:57:00,56.3,43.9,30.16,North,350,0.0,0.0,63,0.00,,,0.00,Wunderground v.1.15,2013-01-22 01:57:00,
2013-01-21 20:07:00,56.0,44.0,30.16,NNE,15,0.0,0.0,64,0.00,,,0.00,Wunderground v.1.15,2013-01-22 02:07:00,
2013-01-21 20:12:00,56.0,44.0,30.16,North,355,1.0,1.0,64,0.00,,,0.00,Wunderground v.1.15,2013-01-22 02:12:00,
2013-01-21 20:17:00,55.9,43.9,30.16,NE,44,0.0,0.0,64,0.00,,,0.00,Wunderground v.1.15,2013-01-22 02:17:00,
2013-01-21 20:22:00,55.8,44.2,30.16,NE,48,0.0,0.0,65,0.00,,,0.00,Wunderground v.1.15,2013-01-22 02:22:00,
2013-01-21 20:27:00,55.7,44.1,30.16,North,11,0.0,0.0,65,0.00,,,0.00,Wunderground v.1.15,2013-01-22 02:27:00,
2013-01-21 20:32:00,55.6,44.0,30.17,NNE,15,0.0,0.0,65,0.00,,,0.00,Wunderground v.1.15,2013-01-22 02:32:00,
2013-01-21 20:37:00,55.5,43.9,30.17,North,9,0.0,0.0,65,0.00,,,0.00,Wunderground v.1.15,2013-01-22 02:37:00,
2013-01-21 20:42:00,55.5,43.9,30.17,NE,34,0.0,0.0,65,0.00,,,0.00,Wunderground v.1.15,2013-01-22 02:42:00,
2013-01-21 20:47:00,55.4,43.8,30.17,NE,34,0.0,0.0,65,0.00,,,0.00,Wunderground v.1.15,2013-01-22 02:47:00,
2013-01-21 20:52:00,55.3,43.7,30.17,NNE,12,0.0,1.0,65,0.00,,,0.00,Wunderground v.1.15,2013-01-22 02:52:00,
2013-01-21 20:57:00,55.2,43.6,30.17,NNE,32,0.0,0.0,65,0.00,,,0.00,Wunderground v.1.15,2013-01-22 02:57:00,
2013-01-21 21:07:00,55.0,44.2,30.17,NNE,15,0.0,0.0,67,0.00,,,0.00,Wunderground v.1.15,2013-01-22 03:07:00,
2013-01-21 21:12:00,54.8,44.0,30.17,NNE,15,0.0,0.0,67,0.00,,,0.00,Wunderground v.1.15,2013-01-22 03:12:00,
2013-01-21 21:17:00,54.7,44.0,30.17,North,360,0.0,0.0,67,0.00,,,0.00,Wunderground v.1.15,2013-01-22 03:17:00,
2013-01-21 21:22:00,54.6,43.9,30.18,NNW,348,0.0,0.0,67,0.00,,,0.00,Wunderground v.1.15,2013-01-22 03:22:00,
2013-01-21 21:27:00,54.4,44.1,30.18,North,360,0.0,1.0,68,0.00,,,0.00,Wunderground v.1.15,2013-01-22 03:27:00,
2013-01-21 21:32:00,54.3,44.0,30.18,NNE,25,0.0,1.0,68,0.00,,,0.00,Wunderground v.1.15,2013-01-22 03:32:00,
2013-01-21 21:37:00,54.2,43.9,30.18,North,355,0.0,0.0,68,0.00,,,0.00,Wunderground v.1.15,2013-01-22 03:37:00,
2013-01-21 21:42:00,54.0,43.7,30.18,North,351,0.0,0.0,68,0.00,,,0.00,Wunderground v.1.15,2013-01-22 03:42:00,
2013-01-21 21:47:00,53.8,43.9,30.18,NNE,19,0.0,0.0,69,0.00,,,0.00,Wunderground v.1.15,2013-01-22 03:47:00,
2013-01-21 21:52:00,53.7,43.8,30.18,NNE,19,0.0,0.0,69,0.00,,,0.00,Wunderground v.1.15,2013-01-22 03:52:00,
2013-01-21 21:57:00,53.5,43.6,30.18,NNE,13,0.0,1.0,69,0.00,,,0.00,Wunderground v.1.15,2013-01-22 03:57:00,
2013-01-21 22:07:00,53.2,43.7,30.18,NNW,332,0.0,0.0,70,0.00,,,0.00,Wunderground v.1.15,2013-01-22 04:07:00,
2013-01-21 22:12:00,53.1,43.6,30.17,NNW,339,0.0,0.0,70,0.00,,,0.00,Wunderground v.1.15,2013-01-22 04:12:00,
2013-01-21 22:17:00,53.0,43.5,30.17,NNE,17,0.0,0.0,70,0.00,,,0.00,Wunderground v.1.15,2013-01-22 04:17:00,
2013-01-21 22:22:00,52.9,43.4,30.17,NNE,17,0.0,0.0,70,0.00,,,0.00,Wunderground v.1.15,2013-01-22 04:22:00,
2013-01-21 22:27:00,52.8,43.3,30.17,NNE,15,0.0,1.0,70,0.00,,,0.00,Wunderground v.1.15,2013-01-22 04:27:00,
2013-01-21 22:32:00,52.6,43.1,30.17,NNE,19,1.0,1.0,70,0.00,,,0.00,Wunderground v.1.15,2013-01-22 04:32:00,
2013-01-21 22:42:00,52.4,43.3,30.17,North,9,0.0,0.0,71,0.00,,,0.00,Wunderground v.1.15,2013-01-22 04:42:00,
2013-01-21 22:47:00,52.2,43.1,30.17,NE,34,0.0,0.0,71,0.00,,,0.00,Wunderground v.1.15,2013-01-22 04:47:00,
2013-01-21 22:52:00,52.0,42.9,30.17,North,360,0.0,0.0,71,0.00,,,0.00,Wunderground v.1.15,2013-01-22 04:52:00,
2013-01-21 23:07:00,51.5,42.8,30.17,North,360,0.0,0.0,72,0.00,,,0.00,Wunderground v.1.15,2013-01-22 05:07:00,
2013-01-21 23:12:00,51.3,42.6,30.17,WNW,294,0.0,0.0,72,0.00,,,0.00,Wunderground v.1.15,2013-01-22 05:12:00,
2013-01-21 23:17:00,51.2,42.1,30.17,North,360,0.0,0.0,71,0.00,,,0.00,Wunderground v.1.15,2013-01-22 05:17:00,
2013-01-21 23:22:00,51.0,41.9,30.17,North,355,0.0,0.0,71,0.00,,,0.00,Wunderground v.1.15,2013-01-22 05:22:00,
2013-01-21 23:27:00,50.8,41.7,30.17,North,351,0.0,0.0,71,0.00,,,0.00,Wunderground v.1.15,2013-01-22 05:27:00,
2013-01-21 23:32:00,50.6,41.5,30.17,East,94,0.0,0.0,71,0.00,,,0.00,Wunderground v.1.15,2013-01-22 05:32:00,
2013-01-21 23:37:00,50.5,41.4,30.17,East,79,0.0,0.0,71,0.00,,,0.00,Wunderground v.1.15,2013-01-22 05:37:00,
2013-01-21 23:42:00,50.3,41.3,30.17,ENE,62,0.0,0.0,71,0.00,,,0.00,Wunderground v.1.15,2013-01-22 05:42:00,
2013-01-21 23:47:00,50.1,41.4,30.17,NNE,31,0.0,0.0,72,0.00,,,0.00,Wunderground v.1.15,2013-01-22 05:47:00,
2013-01-21 23:52:00,49.9,41.2,30.17,NNE,29,0.0,0.0,72,0.00,,,0.00,Wunderground v.1.15,2013-01-22 05:52:00,
2013-01-21 23:57:00,49.7,41.0,30.17,North,5,0.0,0.0,72,0.00,,,0.00,Wunderground v.1.15,2013-01-22 05:57:00,